Regional Weather Roundup
Issued by NWS

Current Version | Previous Version | Text Only | Print | Product List | Glossary On
Versions: 1 2 3 4 5 6 7 8 9 10 11 12 13 14 15 16 17 18 19 20 21 22 23 24 25 26 27
000
ASUS45 KTFX 262210
RWRMT
MONTANA REGIONAL WEATHER ROUNDUP
NATIONAL WEATHER SERVICE GREAT FALLS MT
400 PM MDT TUE SEP 26 2017

NOTE: "FAIR" INDICATES FEW OR NO CLOUDS BELOW 12000 FEET WITH NO
SIGNIFICANT WEATHER AND/OR OBSTRUCTIONS TO VISIBILITY.

MTZ001>007-043-262300-
WEST OF THE DIVIDE

CITY           SKY/WX    TMP DP  RH WIND       PRES   REMARKS
KALISPELL      CLOUDY    64  47  53 S5        30.18F
MISSOULA       CLOUDY    64  44  48 VRB3      30.20S
BUTTE          MOSUNNY   57  35  43 SW5       30.24S
MULLAN PASS    CLOUDY    51  38  60 VRB5      30.28R
ANACONDA         N/A     63  37  39 E5        30.22S
DEER LODGE       N/A     61  39  44 SE3       30.23S VSB 1/4
EUREKA           N/A     63  45  51 MISG      30.18S
HAMILTON         N/A     63  41  45 N3        30.21S
RONAN            N/A     68  45  43 W3        30.22S
$$

MTZ008-052>055-262300-
SOUTHWEST MONTANA

CITY           SKY/WX    TMP DP  RH WIND       PRES   REMARKS
BOZEMAN        SUNNY     61  37  41 CALM      30.21S
DILLON         CLOUDY    59  36  42 VRB3      30.22F
W YELLOWSTONE  CLOUDY    52  30  43 CALM      30.25S
ENNIS          MOSUNNY   57  34  41 SW5       30.26F
THREE FORKS      N/A     65  38  36 NW1       30.17S
$$

MTZ009-010-012-014-046-048-049-054-262300-
EAST SLOPES AND CENTRAL MONTANA

CITY           SKY/WX    TMP DP  RH WIND       PRES   REMARKS
CUT BANK       CLOUDY    66  37  34 NW8       30.13R
GREAT FALLS    SUNNY     68  34  28 MISG      30.14S
MALMSTROM AFB  SUNNY     67  37  32 W9        30.13F
HELENA         SUNNY     66  40  38 CALM      30.16S
BOWMANS CRNR   PTSUNNY   63  37  37 W5        30.14S
CHOTEAU          N/A     68  36  30 N8        30.16S
FAIRFIELD        N/A     68  35  29 NW7       30.13S
POWER            N/A     68  34  29 W9        30.13R
RAYNESFORD       N/A     65  35  33 NW8       30.15S
ULM              N/A     67  37  33 SW7       30.14F
$$

MTZ011-013-016-021-045-047-050-051-262300-
NORTH CENTRAL MONTANA

CITY           SKY/WX    TMP DP  RH WIND       PRES   REMARKS
HAVRE          CLOUDY    70  38  31 NW10      30.08R
N BAR RANCH    PTSUNNY   61  37  41 NW8       30.18S
CHINOOK          N/A     70  37  30 W8        30.07R
DENTON           N/A     66  36  32 NW13G22   30.10S
GEYSER           N/A     65  35  33 W17G23    30.14S
GRASS RANGE      N/A     65  37  35 NW9       30.10S
JUDITH GAP     PTSUNNY   60  37  42 N14       30.16S
WINIFRED         N/A     64  37  36 W14       30.12S
$$

MTZ017>020-022>027-061-062-262300-
NORTHEAST MONTANA

CITY           SKY/WX    TMP DP  RH WIND       PRES   REMARKS
GLASGOW        SUNNY     67  38  34 W8        30.06F
JORDAN           N/A     68  39  34 W14       30.08S
SIDNEY         SUNNY     61  40  45 VRB6      30.10F
WOLF POINT     SUNNY     64  36  35 SW7       30.08S
MALTA          SUNNY     70  37  30 W12       30.06S
PLENTYWOOD       N/A     63  37  39 W8        30.07S
POPLAR           N/A     63  36  36 CALM      30.09S VSB 1/4
$$

MTZ028>42-056>058-262300-
SOUTHCENTRAL AND SOUTHEAST MONTANA

CITY           SKY/WX    TMP DP  RH WIND       PRES   REMARKS
BAKER          MOSUNNY   58  39  49 W10       30.14S
BILLINGS       PTSUNNY   65  38  36 NW6       30.15R
LIVINGSTON     SUNNY     64  38  38 W9        30.18F
MILES CITY     SUNNY     63  43  48 VRB6      30.12S
BIG TIMBER     PTSUNNY   63  37  39 W17       30.19S
HARLOWTON        N/A     63  37  37 MISG      30.16R
LAUREL           N/A     66  39  37 NW8       30.15S
$$

REGIONAL REPORTS...DAKOTAS

CITY           SKY/WX    TMP DP  RH WIND       PRES   REMARKS
WILLISTON      SUNNY     57  42  57 W7        30.10S
MINOT          CLOUDY    55  44  66 SW6       30.10S
DICKINSON      CLOUDY    54  43  66 NW6       30.11R
BEACH          CLOUDY    55  39  54 NW8G14    30.16R
CROSBY         PTSUNNY   57  41  54 VRB5G12   30.09S
TIOGA          CLOUDY    54  46  76 W12       30.12R
WATFORD CITY   CLOUDY    55  41  58 W7G16     30.11
BISMARCK       CLOUDY    58  44  60 SW5       30.12S
GRAND FORKS    CLOUDY    52  47  83 NW12      30.08S
FARGO          CLOUDY    56  49  77 NW13      30.07R
BUFFALO SD       N/A     60  38  43 W8G18     30.06S
RAPID CITY     PTSUNNY   63  39  42 N14       30.12S
$$

REGIONAL REPORTS...WYOMING/IDAHO/WASHINGTON

CITY           SKY/WX    TMP DP  RH WIND       PRES   REMARKS
GILLETTE       MOSUNNY   58  32  37 N14       30.17S
SHERIDAN       CLOUDY    65  38  36 NW9       30.17R
BUFFALO WY     MOSUNNY   61  33  35 MISG      30.20S
CODY           SUNNY     59  34  39 NE7       30.21S
YELLOWSTONE LA   N/A     45  33  63 CALM      30.30S
IDAHO FALLS    MOSUNNY   61  36  39 N6        30.20S
SALMON         CLOUDY    61  40  45 CALM      30.21F
BOISE          SUNNY     71  37  28 W8        30.13S
SPOKANE        MOSUNNY   69  46  43 N3        30.18F
$$

REGIONAL REPORTS...ALBERTA

CITY           SKY/WX    TMP DP  RH WIND       PRES   REMARKS
EDMONTON       MOSUNNY   64  45  48 NW13      30.04R
CALGARY        PTSUNNY   66  37  34 VRB2      30.11S
LETHBRIDGE     PTSUNNY   70  39  32 NW6       30.10F
MEDICINE HAT   PTSUNNY   70  39  32 NW12      30.05S
$$

REGIONAL REPORTS...SASKATCHEWAN

CITY           SKY/WX    TMP DP  RH WIND       PRES   REMARKS
SWIFT CURRENT  MOSUNNY   68  36  30 NW12G18   30.03S
REGINA         PTSUNNY   66  36  32 SW14      30.01F
SASKATOON      PTSUNNY   66  48  52 SW13      29.98S
$$




USA.gov is the U.S. government's official web portal to all federal, state and local government web resources and services.